Time,TemperatureF,DewpointF,PressureIn,WindDirection,WindDirectionDegrees,WindSpeedMPH,WindSpeedGustMPH,Humidity,HourlyPrecipIn,Conditions,Clouds,dailyrainin,SolarRadiationWatts/m^2,SoftwareType,DateUTC
2013-01-03 00:00:00,30.2,28.2,30.33,WNW,288,0.0,0.0,92,0.00,,---,0.00,0.00,VWS V14.00,2013-01-03 06:00:00,
2013-01-03 00:01:00,30.2,28.2,30.33,WNW,288,0.0,0.0,92,0.00,,---,0.00,0.00,VWS V14.00,2013-01-03 06:01:00,
2013-01-03 00:05:00,29.7,27.7,30.33,WNW,288,0.0,0.0,92,0.00,,---,0.00,0.00,VWS V14.00,2013-01-03 06:05:00,
2013-01-03 00:09:00,29.5,27.5,30.33,WNW,288,0.0,0.0,92,0.00,,---,0.00,0.00,VWS V14.00,2013-01-03 06:09:00,
2013-01-03 00:13:00,29.3,27.3,30.33,WNW,288,0.0,0.0,92,0.00,,---,0.00,0.00,VWS V14.00,2013-01-03 06:13:00,
2013-01-03 00:18:00,29.1,27.3,30.34,WNW,288,0.0,0.0,93,0.00,,---,0.00,0.00,VWS V14.00,2013-01-03 06:18:00,
2013-01-03 00:22:00,28.8,27.0,30.34,WNW,288,0.0,0.0,93,0.00,,---,0.00,0.00,VWS V14.00,2013-01-03 06:22:00,
2013-01-03 00:26:00,28.7,26.9,30.34,WNW,288,0.0,0.0,93,0.00,,---,0.00,0.00,VWS V14.00,2013-01-03 06:26:00,
2013-01-03 00:30:00,28.7,26.9,30.33,WNW,288,0.0,0.0,93,0.00,,---,0.00,0.00,VWS V14.00,2013-01-03 06:30:00,
2013-01-03 00:34:00,28.9,27.1,30.33,WNW,288,0.0,0.0,93,0.00,,---,0.00,0.00,VWS V14.00,2013-01-03 06:34:00,
2013-01-03 00:38:00,29.0,27.2,30.33,WNW,288,0.0,0.0,93,0.00,,---,0.00,0.00,VWS V14.00,2013-01-03 06:38:00,
2013-01-03 00:42:00,29.1,27.3,30.33,WNW,288,0.0,0.0,93,0.00,,---,0.00,0.00,VWS V14.00,2013-01-03 06:42:00,
2013-01-03 00:46:00,29.0,27.2,30.34,WNW,288,0.0,0.0,93,0.00,,---,0.00,0.00,VWS V14.00,2013-01-03 06:46:00,
2013-01-03 00:51:00,28.7,26.9,30.34,WNW,288,0.0,0.0,93,0.00,,---,0.00,0.00,VWS V14.00,2013-01-03 06:51:00,
2013-01-03 00:55:00,28.4,26.6,30.34,WNW,288,0.0,0.0,93,0.00,,---,0.00,0.00,VWS V14.00,2013-01-03 06:55:00,
2013-01-03 00:59:00,28.3,26.5,30.34,WNW,288,0.0,0.0,93,0.00,,---,0.00,0.00,VWS V14.00,2013-01-03 06:59:00,
2013-01-03 01:00:00,28.3,26.5,30.34,WNW,288,0.0,0.0,93,0.00,,---,0.00,0.00,VWS V14.00,2013-01-03 07:00:00,
2013-01-03 01:03:00,28.4,26.6,30.34,WNW,288,0.0,0.0,93,0.00,,---,0.00,0.00,VWS V14.00,2013-01-03 07:03:00,
2013-01-03 01:07:00,28.6,27.1,30.34,WNW,288,0.0,0.0,94,0.00,,---,0.00,0.00,VWS V14.00,2013-01-03 07:07:00,
2013-01-03 01:11:00,28.7,27.2,30.34,WNW,288,0.0,0.0,94,0.00,,---,0.00,0.00,VWS V14.00,2013-01-03 07:11:00,
2013-01-03 01:15:00,28.5,26.7,30.33,WNW,288,0.0,0.0,93,0.00,,---,0.00,0.00,VWS V14.00,2013-01-03 07:15:00,
2013-01-03 01:19:00,28.3,26.8,30.33,WNW,288,0.0,0.0,94,0.00,,---,0.00,0.00,VWS V14.00,2013-01-03 07:19:00,
2013-01-03 01:23:00,28.4,26.9,30.33,WNW,288,0.0,0.0,94,0.00,,---,0.00,0.00,VWS V14.00,2013-01-03 07:23:00,
2013-01-03 01:28:00,28.5,27.0,30.33,WNW,288,0.0,0.0,94,0.00,,---,0.00,0.00,VWS V14.00,2013-01-03 07:28:00,
2013-01-03 01:30:00,28.7,27.2,30.33,WNW,288,0.0,0.0,94,0.00,,---,0.00,0.00,VWS V14.00,2013-01-03 07:30:00,
2013-01-03 01:32:00,28.9,27.4,30.33,WNW,288,0.0,0.0,94,0.00,,---,0.00,0.00,VWS V14.00,2013-01-03 07:32:00,
2013-01-03 01:36:00,29.1,27.6,30.33,WNW,288,0.0,0.0,94,0.00,,---,0.00,0.00,VWS V14.00,2013-01-03 07:36:00,
2013-01-03 01:40:00,28.6,27.1,30.33,WNW,288,0.0,0.0,94,0.00,,---,0.00,0.00,VWS V14.00,2013-01-03 07:40:00,
2013-01-03 01:44:00,28.1,26.3,30.34,WNW,288,0.0,0.0,93,0.00,,---,0.00,0.00,VWS V14.00,2013-01-03 07:44:00,
2013-01-03 01:48:00,28.1,26.6,30.34,WNW,288,0.0,0.0,94,0.00,,---,0.00,0.00,VWS V14.00,2013-01-03 07:48:00,
2013-01-03 01:52:00,27.8,26.3,30.34,WNW,288,0.0,0.0,94,0.00,,---,0.00,0.00,VWS V14.00,2013-01-03 07:52:00,
2013-01-03 01:57:00,27.6,26.1,30.34,WNW,288,0.0,0.0,94,0.00,,---,0.00,0.00,VWS V14.00,2013-01-03 07:57:00,
2013-01-03 02:00:00,27.7,26.2,30.33,WNW,288,0.0,0.0,94,0.00,,---,0.00,0.00,VWS V14.00,2013-01-03 08:00:00,
2013-01-03 02:01:00,27.7,26.2,30.33,WNW,288,0.0,0.0,94,0.00,,---,0.00,0.00,VWS V14.00,2013-01-03 08:01:00,
2013-01-03 02:05:00,28.1,26.6,30.33,WNW,288,0.0,0.0,94,0.00,,---,0.00,0.00,VWS V14.00,2013-01-03 08:05:00,
2013-01-03 02:09:00,28.3,26.8,30.33,WNW,288,0.0,0.0,94,0.00,,---,0.00,0.00,VWS V14.00,2013-01-03 08:09:00,
2013-01-03 02:13:00,28.5,27.0,30.33,WNW,288,0.0,0.0,94,0.00,,---,0.00,0.00,VWS V14.00,2013-01-03 08:13:00,
2013-01-03 02:17:00,28.3,26.8,30.33,WNW,288,0.0,0.0,94,0.00,,---,0.00,0.00,VWS V14.00,2013-01-03 08:17:00,
2013-01-03 02:21:00,28.0,26.5,30.33,WNW,288,0.0,0.0,94,0.00,,---,0.00,0.00,VWS V14.00,2013-01-03 08:21:00,
2013-01-03 02:26:00,27.7,26.2,30.33,WNW,288,0.0,0.0,94,0.00,,---,0.00,0.00,VWS V14.00,2013-01-03 08:26:00,
2013-01-03 02:30:00,27.8,26.3,30.34,WNW,288,0.0,0.0,94,0.00,,---,0.00,0.00,VWS V14.00,2013-01-03 08:30:00,
2013-01-03 02:34:00,28.0,26.5,30.34,WNW,288,0.0,0.0,94,0.00,,---,0.00,0.00,VWS V14.00,2013-01-03 08:34:00,
2013-01-03 02:38:00,28.1,26.6,30.34,WNW,288,0.0,0.0,94,0.00,,---,0.00,0.00,VWS V14.00,2013-01-03 08:38:00,
2013-01-03 02:42:00,28.3,26.8,30.34,WNW,288,0.0,0.0,94,0.00,,---,0.00,0.00,VWS V14.00,2013-01-03 08:42:00,
2013-01-03 02:47:00,28.4,26.9,30.34,WNW,288,0.0,0.0,94,0.00,,---,0.00,0.00,VWS V14.00,2013-01-03 08:47:00,
2013-01-03 02:51:00,28.8,27.3,30.34,WNW,288,0.0,0.0,94,0.00,,---,0.00,0.00,VWS V14.00,2013-01-03 08:51:00,
2013-01-03 02:55:00,29.0,27.8,30.34,WNW,288,0.0,0.0,95,0.00,,---,0.00,0.00,VWS V14.00,2013-01-03 08:55:00,
2013-01-03 02:59:00,29.1,27.6,30.33,WNW,288,0.0,0.0,94,0.00,,---,0.00,0.00,VWS V14.00,2013-01-03 08:59:00,
2013-01-03 03:00:00,29.0,27.5,30.33,WNW,288,0.0,0.0,94,0.00,,---,0.00,0.00,VWS V14.00,2013-01-03 09:00:00,
2013-01-03 03:03:00,28.9,27.4,30.33,WNW,288,0.0,0.0,94,0.00,,---,0.00,0.00,VWS V14.00,2013-01-03 09:03:00,
2013-01-03 03:07:00,28.6,27.1,30.33,WNW,288,0.0,0.0,94,0.00,,---,0.00,0.00,VWS V14.00,2013-01-03 09:07:00,
2013-01-03 03:11:00,28.4,26.9,30.33,WNW,288,0.0,0.0,94,0.00,,---,0.00,0.00,VWS V14.00,2013-01-03 09:11:00,
2013-01-03 03:16:00,28.3,26.8,30.35,WNW,288,0.0,0.0,94,0.00,,---,0.00,0.00,VWS V14.00,2013-01-03 09:16:00,
2013-01-03 03:20:00,28.4,26.9,30.35,WNW,288,0.0,0.0,94,0.00,,---,0.00,0.00,VWS V14.00,2013-01-03 09:20:00,
2013-01-03 03:24:00,28.5,27.0,30.35,WNW,288,0.0,0.0,94,0.00,,---,0.00,0.00,VWS V14.00,2013-01-03 09:24:00,
2013-01-03 03:28:00,28.3,26.8,30.35,WNW,288,0.0,0.0,94,0.00,,---,0.00,0.00,VWS V14.00,2013-01-03 09:28:00,
2013-01-03 03:30:00,28.3,26.8,30.35,WNW,288,0.0,0.0,94,0.00,,---,0.00,0.00,VWS V14.00,2013-01-03 09:30:00,
2013-01-03 03:32:00,28.4,26.9,30.35,WNW,288,0.0,0.0,94,0.00,,---,0.00,0.00,VWS V14.00,2013-01-03 09:32:00,
2013-01-03 03:36:00,28.6,27.1,30.35,WNW,288,0.0,0.0,94,0.00,,---,0.00,0.00,VWS V14.00,2013-01-03 09:36:00,
2013-01-03 03:40:00,28.9,27.4,30.35,WNW,288,0.0,0.0,94,0.00,,---,0.00,0.00,VWS V14.00,2013-01-03 09:40:00,
2013-01-03 03:44:00,29.0,27.5,30.36,WNW,288,0.0,0.0,94,0.00,,---,0.00,0.00,VWS V14.00,2013-01-03 09:44:00,
2013-01-03 03:48:00,29.1,27.6,30.36,WNW,288,0.0,0.0,94,0.00,,---,0.00,0.00,VWS V14.00,2013-01-03 09:48:00,
2013-01-03 03:52:00,29.0,27.5,30.36,WNW,288,0.0,0.0,94,0.00,,---,0.00,0.00,VWS V14.00,2013-01-03 09:52:00,
2013-01-03 03:57:00,29.0,27.5,30.36,WNW,288,0.0,0.0,94,0.00,,---,0.00,0.00,VWS V14.00,2013-01-03 09:57:00,
2013-01-03 04:00:00,29.1,27.6,30.35,WNW,288,0.0,0.0,94,0.00,,---,0.00,0.00,VWS V14.00,2013-01-03 10:00:00,
2013-01-03 04:01:00,29.1,27.6,30.35,WNW,288,0.0,0.0,94,0.00,,---,0.00,0.00,VWS V14.00,2013-01-03 10:01:00,
2013-01-03 04:05:00,29.2,27.7,30.35,WNW,288,0.0,0.0,94,0.00,,---,0.00,0.00,VWS V14.00,2013-01-03 10:05:00,
2013-01-03 04:09:00,28.9,27.1,30.35,WNW,288,0.0,0.0,93,0.00,,---,0.00,0.00,VWS V14.00,2013-01-03 10:09:00,
2013-01-03 04:13:00,28.8,27.0,30.35,WNW,288,0.0,0.0,93,0.00,,---,0.00,0.00,VWS V14.00,2013-01-03 10:13:00,
2013-01-03 04:17:00,28.6,26.8,30.35,WNW,288,0.0,0.0,93,0.00,,---,0.00,0.00,VWS V14.00,2013-01-03 10:17:00,
2013-01-03 04:21:00,28.7,26.9,30.35,WNW,288,0.0,0.0,93,0.00,,---,0.00,0.00,VWS V14.00,2013-01-03 10:21:00,
2013-01-03 04:26:00,28.9,27.4,30.35,WNW,288,0.0,0.0,94,0.00,,---,0.00,0.00,VWS V14.00,2013-01-03 10:26:00,
2013-01-03 04:30:00,29.0,27.5,30.36,WNW,288,0.0,0.0,94,0.00,,---,0.00,0.00,VWS V14.00,2013-01-03 10:30:00,
2013-01-03 04:34:00,29.5,28.0,30.36,WNW,288,0.0,0.0,94,0.00,,---,0.00,0.00,VWS V14.00,2013-01-03 10:34:00,
2013-01-03 04:38:00,29.4,27.9,30.36,WNW,288,0.0,0.0,94,0.00,,---,0.00,0.00,VWS V14.00,2013-01-03 10:38:00,
2013-01-03 04:42:00,28.9,27.1,30.36,WNW,288,0.0,0.0,93,0.00,,---,0.00,0.00,VWS V14.00,2013-01-03 10:42:00,
2013-01-03 04:46:00,28.5,26.7,30.36,WNW,288,0.0,0.0,93,0.00,,---,0.00,0.00,VWS V14.00,2013-01-03 10:46:00,
2013-01-03 04:50:00,28.1,26.3,30.36,WNW,288,0.0,0.0,93,0.00,,---,0.00,0.00,VWS V14.00,2013-01-03 10:50:00,
2013-01-03 04:54:00,27.8,26.0,30.36,WNW,288,0.0,0.0,93,0.00,,---,0.00,0.00,VWS V14.00,2013-01-03 10:54:00,
2013-01-03 04:58:00,27.8,26.3,30.36,WNW,288,0.0,0.0,94,0.00,,---,0.00,0.00,VWS V14.00,2013-01-03 10:58:00,
2013-01-03 05:00:00,27.8,26.3,30.37,WNW,288,0.0,0.0,94,0.00,,---,0.00,0.00,VWS V14.00,2013-01-03 11:00:00,
2013-01-03 05:03:00,27.8,26.3,30.37,WNW,288,0.0,0.0,94,0.00,,---,0.00,0.00,VWS V14.00,2013-01-03 11:03:00,
2013-01-03 05:07:00,27.7,26.2,30.37,WNW,288,0.0,0.0,94,0.00,,---,0.00,0.00,VWS V14.00,2013-01-03 11:07:00,
2013-01-03 05:11:00,27.3,25.5,30.37,WNW,288,0.0,0.0,93,0.00,,---,0.00,0.00,VWS V14.00,2013-01-03 11:11:00,
2013-01-03 05:15:00,27.2,25.7,30.37,WNW,288,0.0,0.0,94,0.00,,---,0.00,0.00,VWS V14.00,2013-01-03 11:15:00,
2013-01-03 05:19:00,27.3,25.8,30.37,WNW,288,0.0,0.0,94,0.00,,---,0.00,0.00,VWS V14.00,2013-01-03 11:19:00,
2013-01-03 05:23:00,27.3,25.8,30.37,WNW,288,0.0,0.0,94,0.00,,---,0.00,0.00,VWS V14.00,2013-01-03 11:23:00,
2013-01-03 05:28:00,26.7,25.0,30.37,WNW,288,0.0,0.0,93,0.00,,---,0.00,0.00,VWS V14.00,2013-01-03 11:28:00,
2013-01-03 05:30:00,26.7,25.0,30.38,WNW,288,0.0,0.0,93,0.00,,---,0.00,0.00,VWS V14.00,2013-01-03 11:30:00,
2013-01-03 05:32:00,26.8,25.3,30.38,WNW,288,0.0,0.0,94,0.00,,---,0.00,0.00,VWS V14.00,2013-01-03 11:32:00,
2013-01-03 05:36:00,26.8,25.3,30.38,WNW,288,0.0,0.0,94,0.00,,---,0.00,0.00,VWS V14.00,2013-01-03 11:36:00,
2013-01-03 05:40:00,26.5,24.8,30.38,WNW,288,0.0,0.0,93,0.00,,---,0.00,0.00,VWS V14.00,2013-01-03 11:40:00,
2013-01-03 05:44:00,26.7,25.2,30.38,WNW,288,0.0,0.0,94,0.00,,---,0.00,0.00,VWS V14.00,2013-01-03 11:44:00,
2013-01-03 05:48:00,26.8,25.3,30.38,WNW,288,0.0,0.0,94,0.00,,---,0.00,0.00,VWS V14.00,2013-01-03 11:48:00,
2013-01-03 05:52:00,26.4,24.9,30.38,WNW,288,0.0,0.0,94,0.00,,---,0.00,0.00,VWS V14.00,2013-01-03 11:52:00,
2013-01-03 05:57:00,26.5,25.0,30.38,WNW,288,0.0,0.0,94,0.00,,---,0.00,0.00,VWS V14.00,2013-01-03 11:57:00,
2013-01-03 06:00:00,26.7,25.2,30.38,WNW,288,0.0,0.0,94,0.00,,---,0.00,0.00,VWS V14.00,2013-01-03 12:00:00,
2013-01-03 06:01:00,26.8,25.3,30.38,WNW,288,0.0,0.0,94,0.00,,---,0.00,0.00,VWS V14.00,2013-01-03 12:01:00,
2013-01-03 06:05:00,27.1,25.6,30.38,WNW,288,0.0,0.0,94,0.00,,---,0.00,0.00,VWS V14.00,2013-01-03 12:05:00,
2013-01-03 06:09:00,26.7,25.2,30.38,WNW,288,0.0,0.0,94,0.00,,---,0.00,0.00,VWS V14.00,2013-01-03 12:09:00,
2013-01-03 06:13:00,26.7,25.2,30.38,WNW,288,0.0,0.0,94,0.00,,---,0.00,0.00,VWS V14.00,2013-01-03 12:13:00,
2013-01-03 06:17:00,27.1,25.6,30.39,WNW,288,0.0,0.0,94,0.00,,---,0.00,0.00,VWS V14.00,2013-01-03 12:17:00,
2013-01-03 06:21:00,27.1,25.6,30.39,WNW,288,0.0,0.0,94,0.00,,---,0.00,0.00,VWS V14.00,2013-01-03 12:21:00,
2013-01-03 06:25:00,27.1,25.6,30.39,WNW,289,0.0,0.0,94,0.00,,---,0.00,0.00,VWS V14.00,2013-01-03 12:25:00,
2013-01-03 06:29:00,27.3,25.8,30.40,WNW,289,0.0,0.0,94,0.00,,---,0.00,0.00,VWS V14.00,2013-01-03 12:29:00,
2013-01-03 06:30:00,27.3,25.8,30.40,WNW,289,0.0,0.0,94,0.00,,---,0.00,0.00,VWS V14.00,2013-01-03 12:30:00,
2013-01-03 06:33:00,27.4,25.9,30.40,WNW,288,0.0,0.0,94,0.00,,---,0.00,0.00,VWS V14.00,2013-01-03 12:33:00,
2013-01-03 06:38:00,27.4,25.9,30.40,WNW,289,0.0,0.0,94,0.00,,---,0.00,0.00,VWS V14.00,2013-01-03 12:38:00,
2013-01-03 06:42:00,28.0,26.5,30.40,NW,307,0.0,4.0,94,0.00,,---,0.00,0.00,VWS V14.00,2013-01-03 12:42:00,
2013-01-03 06:46:00,28.9,27.4,30.40,NNW,335,0.0,4.0,94,0.00,,---,0.00,0.00,VWS V14.00,2013-01-03 12:46:00,
2013-01-03 06:50:00,29.8,28.5,30.40,North,360,2.0,4.0,95,0.00,,---,0.00,0.00,VWS V14.00,2013-01-03 12:50:00,
2013-01-03 06:54:00,30.5,29.0,30.40,North,355,0.0,4.0,94,0.00,,---,0.00,0.00,VWS V14.00,2013-01-03 12:54:00,
2013-01-03 06:58:00,31.0,29.5,30.40,NNW,334,2.0,4.0,94,0.00,,---,0.00,0.00,VWS V14.00,2013-01-03 12:58:00,
2013-01-03 07:00:00,31.1,29.6,30.41,NNW,342,0.0,4.0,94,0.00,,---,0.00,0.00,VWS V14.00,2013-01-03 13:00:00,
2013-01-03 07:02:00,30.5,28.5,30.41,NNW,342,0.0,0.0,92,0.00,,---,0.00,0.00,VWS V14.00,2013-01-03 13:02:00,
2013-01-03 07:07:00,29.6,27.6,30.41,NNW,336,0.0,2.0,92,0.00,,---,0.00,0.00,VWS V14.00,2013-01-03 13:07:00,
2013-01-03 07:11:00,29.8,28.0,30.41,NW,319,0.0,5.0,93,0.00,,---,0.00,0.00,VWS V14.00,2013-01-03 13:11:00,
2013-01-03 07:15:00,29.8,27.8,30.41,NW,319,0.0,5.0,92,0.00,,---,0.00,5.00,VWS V14.00,2013-01-03 13:15:00,
2013-01-03 07:19:00,30.5,28.7,30.41,NNW,334,2.0,5.0,93,0.00,,---,0.00,11.00,VWS V14.00,2013-01-03 13:19:00,
2013-01-03 07:23:00,31.3,29.5,30.41,NNW,333,4.0,5.0,93,0.00,,---,0.00,12.00,VWS V14.00,2013-01-03 13:23:00,
2013-01-03 07:27:00,32.4,30.3,30.41,NNW,337,3.0,6.0,92,0.00,,---,0.00,16.00,VWS V14.00,2013-01-03 13:27:00,
2013-01-03 07:30:00,33.0,30.7,30.41,North,360,1.0,6.0,91,0.00,,---,0.00,18.00,VWS V14.00,2013-01-03 13:30:00,
2013-01-03 07:31:00,33.3,31.0,30.41,NNW,333,6.0,6.0,91,0.00,,---,0.00,19.00,VWS V14.00,2013-01-03 13:31:00,
2013-01-03 07:36:00,33.8,30.9,30.41,NW,304,5.0,6.0,89,0.00,,---,0.00,25.00,VWS V14.00,2013-01-03 13:36:00,
2013-01-03 07:40:00,34.0,31.1,30.41,North,5,3.0,6.0,89,0.00,,---,0.00,30.00,VWS V14.00,2013-01-03 13:40:00,
2013-01-03 07:44:00,34.1,30.9,30.41,North,5,3.0,10.0,88,0.00,,---,0.00,42.00,VWS V14.00,2013-01-03 13:44:00,
2013-01-03 07:48:00,34.4,31.5,30.41,NNW,344,2.0,10.0,89,0.00,,---,0.00,69.00,VWS V14.00,2013-01-03 13:48:00,
2013-01-03 07:52:00,34.5,31.3,30.41,NNW,337,3.0,10.0,88,0.00,,---,0.00,83.00,VWS V14.00,2013-01-03 13:52:00,
2013-01-03 07:56:00,34.6,31.4,30.41,NNW,343,3.0,10.0,88,0.00,,---,0.00,95.00,VWS V14.00,2013-01-03 13:56:00,
2013-01-03 08:00:00,34.6,31.1,30.42,NNW,346,4.0,13.0,87,0.00,,---,0.00,105.00,VWS V14.00,2013-01-03 14:00:00,
2013-01-03 08:04:00,34.5,31.0,30.42,NNW,348,6.0,9.0,87,0.00,,---,0.00,116.00,VWS V14.00,2013-01-03 14:04:00,
2013-01-03 08:08:00,34.6,31.1,30.42,NNW,341,3.0,12.0,87,0.00,,---,0.00,137.00,VWS V14.00,2013-01-03 14:08:00,
2013-01-03 08:12:00,34.7,31.2,30.42,North,360,8.0,12.0,87,0.00,,---,0.00,144.00,VWS V14.00,2013-01-03 14:12:00,
2013-01-03 08:17:00,34.8,31.3,30.43,North,355,4.0,12.0,87,0.00,,---,0.00,172.00,VWS V14.00,2013-01-03 14:17:00,
2013-01-03 08:21:00,35.1,31.3,30.43,North,11,6.0,12.0,86,0.00,,---,0.00,197.00,VWS V14.00,2013-01-03 14:21:00,
2013-01-03 08:25:00,35.3,31.5,30.43,North,5,10.0,12.0,86,0.00,,---,0.00,207.00,VWS V14.00,2013-01-03 14:25:00,
2013-01-03 08:29:00,35.3,31.5,30.44,North,355,5.0,12.0,86,0.00,,---,0.00,211.00,VWS V14.00,2013-01-03 14:29:00,
2013-01-03 08:30:00,35.3,31.5,30.44,NNW,348,9.0,12.0,86,0.00,,---,0.00,211.00,VWS V14.00,2013-01-03 14:30:00,
2013-01-03 08:33:00,35.4,31.4,30.44,NNW,346,0.0,9.0,85,0.00,,---,0.00,214.00,VWS V14.00,2013-01-03 14:33:00,
2013-01-03 08:37:00,35.5,31.5,30.44,North,5,4.0,9.0,85,0.00,,---,0.00,225.00,VWS V14.00,2013-01-03 14:37:00,
2013-01-03 08:41:00,35.7,31.6,30.44,NNE,19,5.0,9.0,85,0.00,,---,0.00,232.00,VWS V14.00,2013-01-03 14:41:00,
2013-01-03 08:45:00,36.0,31.9,30.45,North,9,9.0,9.0,85,0.00,,---,0.00,244.00,VWS V14.00,2013-01-03 14:45:00,
2013-01-03 08:50:00,36.2,31.8,30.45,NNW,339,3.0,9.0,84,0.00,,---,0.00,253.00,VWS V14.00,2013-01-03 14:50:00,
2013-01-03 08:54:00,36.3,31.9,30.45,North,5,5.0,9.0,84,0.00,,---,0.00,264.00,VWS V14.00,2013-01-03 14:54:00,
2013-01-03 08:58:00,36.4,32.0,30.45,NNE,16,4.0,9.0,84,0.00,,---,0.00,267.00,VWS V14.00,2013-01-03 14:58:00,
2013-01-03 09:00:00,36.7,32.0,30.45,NNW,333,4.0,9.0,83,0.00,,---,0.00,283.00,VWS V14.00,2013-01-03 15:00:00,
2013-01-03 09:02:00,37.0,32.6,30.45,North,5,7.0,7.0,84,0.00,,---,0.00,287.00,VWS V14.00,2013-01-03 15:02:00,
2013-01-03 09:06:00,37.3,32.9,30.45,North,351,4.0,7.0,84,0.00,,---,0.00,299.00,VWS V14.00,2013-01-03 15:06:00,
2013-01-03 09:10:00,37.5,32.5,30.45,North,360,7.0,7.0,82,0.00,,---,0.00,308.00,VWS V14.00,2013-01-03 15:10:00,
2013-01-03 09:14:00,37.3,32.3,30.45,North,351,6.0,7.0,82,0.00,,---,0.00,318.00,VWS V14.00,2013-01-03 15:14:00,
2013-01-03 09:18:00,37.5,32.2,30.45,NNW,329,5.0,9.0,81,0.00,,---,0.00,329.00,VWS V14.00,2013-01-03 15:18:00,
2013-01-03 09:23:00,37.4,32.1,30.45,NNE,20,7.0,11.0,81,0.00,,---,0.00,338.00,VWS V14.00,2013-01-03 15:23:00,
2013-01-03 09:27:00,37.4,32.4,30.45,North,5,6.0,11.0,82,0.00,,---,0.00,353.00,VWS V14.00,2013-01-03 15:27:00,
2013-01-03 09:30:00,37.7,32.7,30.45,NNE,16,4.0,11.0,82,0.00,,---,0.00,355.00,VWS V14.00,2013-01-03 15:30:00,
2013-01-03 09:31:00,38.1,33.1,30.45,NNW,340,2.0,4.0,82,0.00,,---,0.00,362.00,VWS V14.00,2013-01-03 15:31:00,
2013-01-03 09:35:00,38.8,33.8,30.45,NNE,31,4.0,7.0,82,0.00,,---,0.00,371.00,VWS V14.00,2013-01-03 15:35:00,
2013-01-03 09:39:00,39.2,33.9,30.45,North,10,3.0,7.0,81,0.00,,---,0.00,381.00,VWS V14.00,2013-01-03 15:39:00,
2013-01-03 09:43:00,39.2,33.6,30.45,NNE,16,0.0,7.0,80,0.00,,---,0.00,390.00,VWS V14.00,2013-01-03 15:43:00,
2013-01-03 09:48:00,39.3,33.7,30.45,North,350,2.0,7.0,80,0.00,,---,0.00,401.00,VWS V14.00,2013-01-03 15:48:00,
2013-01-03 09:52:00,39.8,34.1,30.45,North,355,6.0,7.0,80,0.00,,---,0.00,410.00,VWS V14.00,2013-01-03 15:52:00,
2013-01-03 09:56:00,39.9,33.6,30.45,North,351,4.0,7.0,78,0.00,,---,0.00,420.00,VWS V14.00,2013-01-03 15:56:00,
2013-01-03 10:00:00,40.4,34.1,30.45,NNE,23,5.0,7.0,78,0.00,,---,0.00,427.00,VWS V14.00,2013-01-03 16:00:00,
2013-01-03 10:04:00,40.6,34.0,30.45,North,355,3.0,6.0,77,0.00,,---,0.00,434.00,VWS V14.00,2013-01-03 16:04:00,
2013-01-03 10:08:00,41.3,34.3,30.45,NNE,22,1.0,6.0,76,0.00,,---,0.00,441.00,VWS V14.00,2013-01-03 16:08:00,
2013-01-03 10:12:00,41.8,34.5,30.45,NNW,328,4.0,6.0,75,0.00,,---,0.00,448.00,VWS V14.00,2013-01-03 16:12:00,
2013-01-03 10:16:00,42.0,34.7,30.45,North,355,6.0,6.0,75,0.00,,---,0.00,457.00,VWS V14.00,2013-01-03 16:16:00,
2013-01-03 10:21:00,42.1,34.4,30.45,NNE,16,3.0,6.0,74,0.00,,---,0.00,462.00,VWS V14.00,2013-01-03 16:21:00,
2013-01-03 10:25:00,42.7,35.0,30.45,North,355,4.0,6.0,74,0.00,,---,0.00,468.00,VWS V14.00,2013-01-03 16:25:00,
2013-01-03 10:29:00,43.1,35.0,30.45,NNE,15,4.0,7.0,73,0.00,,---,0.00,476.00,VWS V14.00,2013-01-03 16:29:00,
2013-01-03 10:30:00,43.1,34.3,30.44,NNW,342,5.0,7.0,71,0.00,,---,0.00,478.00,VWS V14.00,2013-01-03 16:30:00,
2013-01-03 10:33:00,43.2,34.8,30.44,NE,42,4.0,5.0,72,0.00,,---,0.00,485.00,VWS V14.00,2013-01-03 16:33:00,
2013-01-03 10:37:00,43.7,34.2,30.44,NNE,24,4.0,7.0,69,0.00,,---,0.00,492.00,VWS V14.00,2013-01-03 16:37:00,
2013-01-03 10:41:00,44.0,33.8,30.44,NE,35,4.0,7.0,67,0.00,,---,0.00,496.00,VWS V14.00,2013-01-03 16:41:00,
2013-01-03 10:46:00,44.4,34.9,30.44,NNW,337,7.0,7.0,69,0.00,,---,0.00,503.00,VWS V14.00,2013-01-03 16:46:00,
2013-01-03 10:50:00,44.3,34.4,30.44,North,9,3.0,7.0,68,0.00,,---,0.00,506.00,VWS V14.00,2013-01-03 16:50:00,
2013-01-03 10:54:00,44.7,34.8,30.44,North,355,4.0,7.0,68,0.00,,---,0.00,519.00,VWS V14.00,2013-01-03 16:54:00,
2013-01-03 10:58:00,45.0,34.3,30.44,NNE,20,3.0,7.0,66,0.00,,---,0.00,524.00,VWS V14.00,2013-01-03 16:58:00,
2013-01-03 11:00:00,45.2,34.2,30.44,North,351,9.0,9.0,65,0.00,,---,0.00,522.00,VWS V14.00,2013-01-03 17:00:00,
2013-01-03 11:02:00,45.2,34.2,30.44,North,11,3.0,9.0,65,0.00,,---,0.00,524.00,VWS V14.00,2013-01-03 17:02:00,
2013-01-03 11:06:00,45.2,33.4,30.44,NNE,15,6.0,10.0,63,0.00,,---,0.00,529.00,VWS V14.00,2013-01-03 17:06:00,
2013-01-03 11:10:00,45.9,34.0,30.44,North,5,7.0,10.0,63,0.00,,---,0.00,536.00,VWS V14.00,2013-01-03 17:10:00,
2013-01-03 11:14:00,46.0,33.7,30.44,NNE,24,6.0,10.0,62,0.00,,---,0.00,540.00,VWS V14.00,2013-01-03 17:14:00,
2013-01-03 11:18:00,45.8,33.1,30.44,NNW,344,11.0,11.0,61,0.00,,---,0.00,545.00,VWS V14.00,2013-01-03 17:18:00,
2013-01-03 11:22:00,45.7,33.8,30.44,North,360,3.0,11.0,63,0.00,,---,0.00,547.00,VWS V14.00,2013-01-03 17:22:00,
2013-01-03 11:27:00,46.5,33.4,30.44,NNE,16,2.0,11.0,60,0.00,,---,0.00,550.00,VWS V14.00,2013-01-03 17:27:00,
2013-01-03 11:30:00,46.5,33.4,30.43,NNE,30,4.0,11.0,60,0.00,,---,0.00,550.00,VWS V14.00,2013-01-03 17:30:00,
2013-01-03 11:31:00,46.4,33.3,30.43,North,5,4.0,5.0,60,0.00,,---,0.00,552.00,VWS V14.00,2013-01-03 17:31:00,
2013-01-03 11:35:00,46.5,33.0,30.43,NNE,18,1.0,5.0,59,0.00,,---,0.00,561.00,VWS V14.00,2013-01-03 17:35:00,
2013-01-03 11:39:00,46.4,32.4,30.43,NNE,13,5.0,7.0,58,0.00,,---,0.00,557.00,VWS V14.00,2013-01-03 17:39:00,
2013-01-03 11:43:00,46.4,32.9,30.43,North,5,5.0,7.0,59,0.00,,---,0.00,559.00,VWS V14.00,2013-01-03 17:43:00,
2013-01-03 11:47:00,46.7,32.3,30.42,NNE,21,6.0,7.0,57,0.00,,---,0.00,563.00,VWS V14.00,2013-01-03 17:47:00,
2013-01-03 11:51:00,46.9,33.3,30.42,NNE,22,3.0,10.0,59,0.00,,---,0.00,563.00,VWS V14.00,2013-01-03 17:51:00,
2013-01-03 11:56:00,46.8,32.4,30.42,ENE,73,5.0,10.0,57,0.00,,---,0.00,564.00,VWS V14.00,2013-01-03 17:56:00,
2013-01-03 12:00:00,46.7,32.3,30.41,NE,51,2.0,10.0,57,0.00,,---,0.00,564.00,VWS V14.00,2013-01-03 18:00:00,
2013-01-03 12:04:00,48.0,33.5,30.41,NE,40,2.0,4.0,57,0.00,,---,0.00,566.00,VWS V14.00,2013-01-03 18:04:00,
2013-01-03 12:08:00,47.7,33.2,30.41,North,5,4.0,4.0,57,0.00,,---,0.00,564.00,VWS V14.00,2013-01-03 18:08:00,
2013-01-03 12:12:00,48.6,33.6,30.41,North,5,4.0,6.0,56,0.00,,---,0.00,568.00,VWS V14.00,2013-01-03 18:12:00,
2013-01-03 12:16:00,48.1,32.7,30.40,NNE,27,1.0,6.0,55,0.00,,---,0.00,566.00,VWS V14.00,2013-01-03 18:16:00,
2013-01-03 12:20:00,47.6,31.8,30.40,NE,38,1.0,6.0,54,0.00,,---,0.00,568.00,VWS V14.00,2013-01-03 18:20:00,
2013-01-03 12:24:00,48.3,32.4,30.40,NE,34,3.0,9.0,54,0.00,,---,0.00,568.00,VWS V14.00,2013-01-03 18:24:00,
2013-01-03 12:28:00,48.1,31.3,30.40,North,5,6.0,10.0,52,0.00,,---,0.00,564.00,VWS V14.00,2013-01-03 18:28:00,
2013-01-03 12:30:00,48.2,32.3,30.39,NNE,26,3.0,10.0,54,0.00,,---,0.00,564.00,VWS V14.00,2013-01-03 18:30:00,
2013-01-03 12:32:00,48.0,32.2,30.39,NNE,22,3.0,4.0,54,0.00,,---,0.00,564.00,VWS V14.00,2013-01-03 18:32:00,
2013-01-03 12:37:00,47.8,31.5,30.39,North,355,5.0,6.0,53,0.00,,---,0.00,561.00,VWS V14.00,2013-01-03 18:37:00,
2013-01-03 12:41:00,48.8,32.4,30.39,NNE,24,3.0,7.0,53,0.00,,---,0.00,561.00,VWS V14.00,2013-01-03 18:41:00,
2013-01-03 12:45:00,49.5,34.0,30.38,NNE,21,5.0,7.0,55,0.00,,---,0.00,570.00,VWS V14.00,2013-01-03 18:45:00,
2013-01-03 12:49:00,48.3,32.4,30.38,East,83,4.0,7.0,54,0.00,,---,0.00,619.00,VWS V14.00,2013-01-03 18:49:00,
2013-01-03 12:53:00,47.7,32.8,30.38,NE,51,3.0,7.0,56,0.00,,---,0.00,584.00,VWS V14.00,2013-01-03 18:53:00,
2013-01-03 12:57:00,48.3,32.4,30.38,North,5,3.0,8.0,54,0.00,,---,0.00,552.00,VWS V14.00,2013-01-03 18:57:00,
2013-01-03 13:00:00,48.9,32.5,30.36,North,5,4.0,8.0,53,0.00,,---,0.00,547.00,VWS V14.00,2013-01-03 19:00:00,
2013-01-03 13:01:00,49.0,33.1,30.36,NNE,31,3.0,4.0,54,0.00,,---,0.00,545.00,VWS V14.00,2013-01-03 19:01:00,
2013-01-03 13:35:00,49.1,32.7,30.38,NE,47,0.0,4.0,53,0.00,,---,0.00,504.00,VWS V14.00,2013-01-03 19:35:00,
2013-01-03 13:39:00,49.8,32.9,30.38,NNE,15,6.0,6.0,52,0.00,,---,0.00,501.00,VWS V14.00,2013-01-03 19:39:00,
2013-01-03 13:43:00,49.6,31.2,30.38,NE,46,4.0,6.0,49,0.00,,---,0.00,494.00,VWS V14.00,2013-01-03 19:43:00,
2013-01-03 13:47:00,49.1,30.3,30.38,NE,52,2.0,6.0,48,0.00,,---,0.00,489.00,VWS V14.00,2013-01-03 19:47:00,
2013-01-03 13:51:00,49.4,32.5,30.38,NNE,28,1.0,6.0,52,0.00,,---,0.00,482.00,VWS V14.00,2013-01-03 19:51:00,
2013-01-03 13:56:00,50.1,32.2,30.38,NNE,22,3.0,6.0,50,0.00,,---,0.00,476.00,VWS V14.00,2013-01-03 19:56:00,
2013-01-03 14:00:00,49.6,31.2,30.38,NNE,16,1.0,6.0,49,0.00,,---,0.00,485.00,VWS V14.00,2013-01-03 20:00:00,
2013-01-03 14:04:00,49.1,31.8,30.38,NNW,333,1.0,5.0,51,0.00,,---,0.00,489.00,VWS V14.00,2013-01-03 20:04:00,
2013-01-03 14:08:00,50.2,32.8,30.38,NNE,13,4.0,5.0,51,0.00,,---,0.00,485.00,VWS V14.00,2013-01-03 20:08:00,
2013-01-03 14:12:00,50.0,32.1,30.38,ENE,59,3.0,5.0,50,0.00,,---,0.00,420.00,VWS V14.00,2013-01-03 20:12:00,
2013-01-03 14:16:00,48.7,30.9,30.38,NE,56,0.0,5.0,50,0.00,,---,0.00,181.00,VWS V14.00,2013-01-03 20:16:00,
2013-01-03 14:21:00,48.9,30.6,30.38,North,360,4.0,6.0,49,0.00,,---,0.00,216.00,VWS V14.00,2013-01-03 20:21:00,
2013-01-03 14:25:00,48.6,30.8,30.38,ENE,74,1.0,6.0,50,0.00,,---,0.00,163.00,VWS V14.00,2013-01-03 20:25:00,
2013-01-03 14:29:00,48.1,31.8,30.38,ENE,61,0.0,6.0,53,0.00,,---,0.00,188.00,VWS V14.00,2013-01-03 20:29:00,
2013-01-03 14:30:00,48.5,31.7,30.38,NNW,334,7.0,7.0,52,0.00,,---,0.00,188.00,VWS V14.00,2013-01-03 20:30:00,
2013-01-03 14:33:00,49.7,31.8,30.38,NNE,13,4.0,9.0,50,0.00,,---,0.00,534.00,VWS V14.00,2013-01-03 20:33:00,
2013-01-03 14:37:00,50.5,31.6,30.38,NNE,24,0.0,9.0,48,0.00,,---,0.00,360.00,VWS V14.00,2013-01-03 20:37:00,
2013-01-03 14:41:00,48.9,30.6,30.38,ENE,65,0.0,9.0,49,0.00,,---,0.00,58.00,VWS V14.00,2013-01-03 20:41:00,
2013-01-03 14:45:00,48.1,30.8,30.40,NNE,33,1.0,9.0,51,0.00,,---,0.00,144.00,VWS V14.00,2013-01-03 20:45:00,
2013-01-03 14:49:00,48.3,31.0,30.40,NNE,16,0.0,9.0,51,0.00,,---,0.00,197.00,VWS V14.00,2013-01-03 20:49:00,
2013-01-03 14:53:00,48.6,31.8,30.40,NNE,25,2.0,9.0,52,0.00,,---,0.00,142.00,VWS V14.00,2013-01-03 20:53:00,
2013-01-03 14:57:00,48.5,30.7,30.40,NNE,16,3.0,9.0,50,0.00,,---,0.00,248.00,VWS V14.00,2013-01-03 20:57:00,
2013-01-03 15:00:00,48.6,31.3,30.38,NNE,16,4.0,9.0,51,0.00,,---,0.00,214.00,VWS V14.00,2013-01-03 21:00:00,
2013-01-03 15:02:00,48.7,31.9,30.38,NNW,335,4.0,4.0,52,0.00,,---,0.00,192.00,VWS V14.00,2013-01-03 21:02:00,
2013-01-03 15:06:00,48.7,31.4,30.38,North,5,1.0,6.0,51,0.00,,---,0.00,193.00,VWS V14.00,2013-01-03 21:06:00,
2013-01-03 15:10:00,48.7,31.4,30.38,North,10,6.0,6.0,51,0.00,,---,0.00,269.00,VWS V14.00,2013-01-03 21:10:00,
2013-01-03 15:14:00,49.2,32.3,30.39,NNE,16,5.0,8.0,52,0.00,,---,0.00,360.00,VWS V14.00,2013-01-03 21:14:00,
2013-01-03 15:18:00,49.4,31.6,30.39,NNE,16,5.0,10.0,50,0.00,,---,0.00,309.00,VWS V14.00,2013-01-03 21:18:00,
2013-01-03 15:22:00,49.0,30.7,30.39,NNW,346,4.0,10.0,49,0.00,,---,0.00,83.00,VWS V14.00,2013-01-03 21:22:00,
2013-01-03 15:26:00,48.7,30.9,30.39,North,355,4.0,10.0,50,0.00,,---,0.00,271.00,VWS V14.00,2013-01-03 21:26:00,
2013-01-03 15:30:00,48.8,30.5,30.39,NNW,344,4.0,10.0,49,0.00,,---,0.00,167.00,VWS V14.00,2013-01-03 21:30:00,
2013-01-03 15:31:00,48.8,31.0,30.39,NNE,15,6.0,6.0,50,0.00,,---,0.00,156.00,VWS V14.00,2013-01-03 21:31:00,
2013-01-03 15:35:00,48.6,30.3,30.39,NNE,21,3.0,6.0,49,0.00,,---,0.00,114.00,VWS V14.00,2013-01-03 21:35:00,
2013-01-03 15:39:00,48.2,30.9,30.39,North,360,4.0,6.0,51,0.00,,---,0.00,104.00,VWS V14.00,2013-01-03 21:39:00,
2013-01-03 15:43:00,48.2,30.9,30.39,NNE,27,4.0,6.0,51,0.00,,---,0.00,120.00,VWS V14.00,2013-01-03 21:43:00,
2013-01-03 15:48:00,48.1,30.8,30.39,North,5,4.0,6.0,51,0.00,,---,0.00,93.00,VWS V14.00,2013-01-03 21:48:00,
2013-01-03 15:52:00,48.1,31.3,30.39,NNW,336,1.0,6.0,52,0.00,,---,0.00,81.00,VWS V14.00,2013-01-03 21:52:00,
2013-01-03 15:56:00,48.0,30.3,30.39,NNE,22,2.0,6.0,50,0.00,,---,0.00,83.00,VWS V14.00,2013-01-03 21:56:00,
2013-01-03 16:00:00,47.9,30.7,30.40,NNE,13,3.0,6.0,51,0.00,,---,0.00,77.00,VWS V14.00,2013-01-03 22:00:00,
2013-01-03 16:04:00,47.9,31.1,30.40,North,360,0.0,3.0,52,0.00,,---,0.00,70.00,VWS V14.00,2013-01-03 22:04:00,
2013-01-03 16:08:00,47.8,30.1,30.40,NNE,28,3.0,4.0,50,0.00,,---,0.00,70.00,VWS V14.00,2013-01-03 22:08:00,
2013-01-03 16:12:00,47.8,31.0,30.40,NNE,32,0.0,4.0,52,0.00,,---,0.00,84.00,VWS V14.00,2013-01-03 22:12:00,
2013-01-03 16:16:00,47.9,31.6,30.40,North,11,3.0,5.0,53,0.00,,---,0.00,65.00,VWS V14.00,2013-01-03 22:16:00,
2013-01-03 16:20:00,47.7,31.0,30.40,NNE,15,4.0,7.0,52,0.00,,---,0.00,49.00,VWS V14.00,2013-01-03 22:20:00,
2013-01-03 16:24:00,47.6,30.4,30.40,NNE,21,3.0,7.0,51,0.00,,---,0.00,51.00,VWS V14.00,2013-01-03 22:24:00,
2013-01-03 16:28:00,47.5,31.2,30.40,NNE,21,1.0,7.0,53,0.00,,---,0.00,44.00,VWS V14.00,2013-01-03 22:28:00,
2013-01-03 16:30:00,47.4,30.7,30.40,North,5,2.0,7.0,52,0.00,,---,0.00,39.00,VWS V14.00,2013-01-03 22:30:00,
2013-01-03 16:33:00,47.4,30.7,30.40,NNE,15,4.0,5.0,52,0.00,,---,0.00,35.00,VWS V14.00,2013-01-03 22:33:00,
2013-01-03 16:37:00,47.2,30.5,30.40,North,360,1.0,5.0,52,0.00,,---,0.00,32.00,VWS V14.00,2013-01-03 22:37:00,
2013-01-03 16:41:00,47.2,30.5,30.40,North,360,4.0,5.0,52,0.00,,---,0.00,26.00,VWS V14.00,2013-01-03 22:41:00,
2013-01-03 16:45:00,47.1,30.9,30.41,NNE,19,0.0,5.0,53,0.00,,---,0.00,23.00,VWS V14.00,2013-01-03 22:45:00,
2013-01-03 16:49:00,47.1,30.9,30.41,North,355,3.0,5.0,53,0.00,,---,0.00,19.00,VWS V14.00,2013-01-03 22:49:00,
2013-01-03 16:53:00,47.0,30.3,30.41,North,5,2.0,5.0,52,0.00,,---,0.00,16.00,VWS V14.00,2013-01-03 22:53:00,
2013-01-03 16:57:00,46.8,31.0,30.41,North,5,0.0,5.0,54,0.00,,---,0.00,11.00,VWS V14.00,2013-01-03 22:57:00,
2013-01-03 17:00:00,46.7,31.0,30.41,NNE,26,3.0,5.0,54,0.00,,---,0.00,9.00,VWS V14.00,2013-01-03 23:00:00,
2013-01-03 17:02:00,46.7,30.5,30.41,NNE,26,4.0,4.0,53,0.00,,---,0.00,9.00,VWS V14.00,2013-01-03 23:02:00,
2013-01-03 17:06:00,46.5,30.8,30.41,North,5,0.0,4.0,54,0.00,,---,0.00,7.00,VWS V14.00,2013-01-03 23:06:00,
2013-01-03 17:10:00,46.4,31.1,30.41,North,5,0.0,4.0,55,0.00,,---,0.00,0.00,VWS V14.00,2013-01-03 23:10:00,
2013-01-03 17:14:00,46.2,31.4,30.41,North,5,2.0,4.0,56,0.00,,---,0.00,0.00,VWS V14.00,2013-01-03 23:14:00,
2013-01-03 17:18:00,46.0,31.2,30.41,NNW,346,1.0,4.0,56,0.00,,---,0.00,0.00,VWS V14.00,2013-01-03 23:18:00,
2013-01-03 17:22:00,45.8,30.6,30.41,North,5,1.0,4.0,55,0.00,,---,0.00,0.00,VWS V14.00,2013-01-03 23:22:00,
2013-01-03 17:26:00,45.6,31.3,30.41,North,5,4.0,4.0,57,0.00,,---,0.00,0.00,VWS V14.00,2013-01-03 23:26:00,
2013-01-03 17:30:00,45.6,31.3,30.41,NNW,338,2.0,6.0,57,0.00,,---,0.00,0.00,VWS V14.00,2013-01-03 23:30:00,
2013-01-03 17:34:00,45.6,31.3,30.41,NNW,340,3.0,4.0,57,0.00,,---,0.00,0.00,VWS V14.00,2013-01-03 23:34:00,
2013-01-03 17:38:00,45.6,32.1,30.41,NNW,346,0.0,4.0,59,0.00,,---,0.00,0.00,VWS V14.00,2013-01-03 23:38:00,
2013-01-03 17:43:00,45.6,32.9,30.41,NNW,334,3.0,4.0,61,0.00,,---,0.00,0.00,VWS V14.00,2013-01-03 23:43:00,
2013-01-03 17:47:00,45.6,32.5,30.42,NNE,15,3.0,4.0,60,0.00,,---,0.00,0.00,VWS V14.00,2013-01-03 23:47:00,
2013-01-03 17:51:00,45.7,32.6,30.42,NNW,346,4.0,7.0,60,0.00,,---,0.00,0.00,VWS V14.00,2013-01-03 23:51:00,
2013-01-03 17:55:00,45.9,32.4,30.42,NW,322,0.0,7.0,59,0.00,,---,0.00,0.00,VWS V14.00,2013-01-03 23:55:00,
2013-01-03 17:59:00,45.9,32.4,30.42,North,351,4.0,7.0,59,0.00,,---,0.00,0.00,VWS V14.00,2013-01-03 23:59:00,
2013-01-03 18:00:00,45.9,32.4,30.42,North,350,3.0,7.0,59,0.00,,---,0.00,0.00,VWS V14.00,2013-01-04 00:00:00,
2013-01-03 18:03:00,46.0,32.9,30.42,NNE,12,3.0,7.0,60,0.00,,---,0.00,0.00,VWS V14.00,2013-01-04 00:03:00,
2013-01-03 18:07:00,45.9,32.8,30.42,NNW,346,1.0,7.0,60,0.00,,---,0.00,0.00,VWS V14.00,2013-01-04 00:07:00,
2013-01-03 18:11:00,45.9,32.8,30.42,North,355,4.0,7.0,60,0.00,,---,0.00,0.00,VWS V14.00,2013-01-04 00:11:00,
2013-01-03 18:16:00,45.9,32.8,30.42,North,360,2.0,7.0,60,0.00,,---,0.00,0.00,VWS V14.00,2013-01-04 00:16:00,
2013-01-03 18:20:00,45.8,32.7,30.42,North,355,3.0,7.0,60,0.00,,---,0.00,0.00,VWS V14.00,2013-01-04 00:20:00,
2013-01-03 18:24:00,45.8,32.7,30.42,NNE,20,4.0,7.0,60,0.00,,---,0.00,0.00,VWS V14.00,2013-01-04 00:24:00,
2013-01-03 18:28:00,45.7,32.6,30.42,NNW,344,1.0,7.0,60,0.00,,---,0.00,0.00,VWS V14.00,2013-01-04 00:28:00,
2013-01-03 18:30:00,45.6,32.9,30.43,NNW,347,0.0,7.0,61,0.00,,---,0.00,0.00,VWS V14.00,2013-01-04 00:30:00,
2013-01-03 18:32:00,45.5,32.8,30.43,NNW,327,1.0,4.0,61,0.00,,---,0.00,0.00,VWS V14.00,2013-01-04 00:32:00,
2013-01-03 18:36:00,45.3,32.7,30.43,NNW,329,2.0,5.0,61,0.00,,---,0.00,0.00,VWS V14.00,2013-01-04 00:36:00,
2013-01-03 18:40:00,45.1,32.5,30.43,NNW,328,0.0,5.0,61,0.00,,---,0.00,0.00,VWS V14.00,2013-01-04 00:40:00,
2013-01-03 18:44:00,45.1,32.9,30.43,NNW,348,1.0,5.0,62,0.00,,---,0.00,0.00,VWS V14.00,2013-01-04 00:44:00,
2013-01-03 18:48:00,44.8,32.6,30.43,North,360,2.0,5.0,62,0.00,,---,0.00,0.00,VWS V14.00,2013-01-04 00:48:00,
2013-01-03 18:53:00,44.4,32.6,30.43,NNW,346,0.0,5.0,63,0.00,,---,0.00,0.00,VWS V14.00,2013-01-04 00:53:00,
2013-01-03 18:57:00,44.2,32.4,30.43,NNW,338,0.0,5.0,63,0.00,,---,0.00,0.00,VWS V14.00,2013-01-04 00:57:00,
2013-01-03 19:00:00,44.3,32.5,30.43,North,349,0.0,5.0,63,0.00,,---,0.00,0.00,VWS V14.00,2013-01-04 01:00:00,
2013-01-03 19:01:00,44.3,32.5,30.43,North,349,0.0,1.0,63,0.00,,---,0.00,0.00,VWS V14.00,2013-01-04 01:01:00,
2013-01-03 19:05:00,44.1,32.3,30.43,NNW,331,0.0,1.0,63,0.00,,---,0.00,0.00,VWS V14.00,2013-01-04 01:05:00,
2013-01-03 19:09:00,44.2,32.8,30.43,NNW,331,2.0,2.0,64,0.00,,---,0.00,0.00,VWS V14.00,2013-01-04 01:09:00,
2013-01-03 19:13:00,44.2,32.8,30.43,NNW,348,1.0,2.0,64,0.00,,---,0.00,0.00,VWS V14.00,2013-01-04 01:13:00,
2013-01-03 19:17:00,44.0,33.0,30.44,North,349,0.0,2.0,65,0.00,,---,0.00,0.00,VWS V14.00,2013-01-04 01:17:00,
2013-01-03 19:21:00,44.1,32.7,30.44,North,5,3.0,3.0,64,0.00,,---,0.00,0.00,VWS V14.00,2013-01-04 01:21:00,
2013-01-03 19:26:00,44.1,32.7,30.44,North,355,0.0,3.0,64,0.00,,---,0.00,0.00,VWS V14.00,2013-01-04 01:26:00,
2013-01-03 19:30:00,44.2,32.8,30.44,NNW,333,0.0,3.0,64,0.00,,---,0.00,0.00,VWS V14.00,2013-01-04 01:30:00,
2013-01-03 19:34:00,44.1,33.1,30.44,North,349,0.0,3.0,65,0.00,,---,0.00,0.00,VWS V14.00,2013-01-04 01:34:00,
2013-01-03 19:38:00,43.1,32.9,30.44,North,349,0.0,3.0,67,0.00,,---,0.00,0.00,VWS V14.00,2013-01-04 01:38:00,
2013-01-03 19:42:00,43.2,33.0,30.44,North,349,0.0,3.0,67,0.00,,---,0.00,0.00,VWS V14.00,2013-01-04 01:42:00,
2013-01-03 19:46:00,43.5,33.3,30.44,NNW,340,0.0,3.0,67,0.00,,---,0.00,0.00,VWS V14.00,2013-01-04 01:46:00,
2013-01-03 19:50:00,42.7,33.2,30.44,NNW,340,0.0,3.0,69,0.00,,---,0.00,0.00,VWS V14.00,2013-01-04 01:50:00,
2013-01-03 19:54:00,42.7,33.2,30.44,NNW,340,0.0,3.0,69,0.00,,---,0.00,0.00,VWS V14.00,2013-01-04 01:54:00,
2013-01-03 19:58:00,42.5,33.1,30.44,NNW,340,0.0,3.0,69,0.00,,---,0.00,0.00,VWS V14.00,2013-01-04 01:58:00,
2013-01-03 20:00:00,42.3,33.2,30.44,NNW,340,0.0,3.0,70,0.00,,---,0.00,0.00,VWS V14.00,2013-01-04 02:00:00,
2013-01-03 20:02:00,42.1,33.4,30.44,NNW,340,0.0,0.0,71,0.00,,---,0.00,0.00,VWS V14.00,2013-01-04 02:02:00,
2013-01-03 20:07:00,42.1,33.4,30.44,NNW,342,1.0,2.0,71,0.00,,---,0.00,0.00,VWS V14.00,2013-01-04 02:07:00,
2013-01-03 20:11:00,41.8,33.8,30.44,NNW,341,0.0,2.0,73,0.00,,---,0.00,0.00,VWS V14.00,2013-01-04 02:11:00,
2013-01-03 20:15:00,41.0,34.0,30.44,NNW,341,0.0,2.0,76,0.00,,---,0.00,0.00,VWS V14.00,2013-01-04 02:15:00,
2013-01-03 20:19:00,40.8,33.5,30.44,NNW,341,0.0,2.0,75,0.00,,---,0.00,0.00,VWS V14.00,2013-01-04 02:19:00,
2013-01-03 20:23:00,41.2,33.2,30.44,NNW,341,0.0,2.0,73,0.00,,---,0.00,0.00,VWS V14.00,2013-01-04 02:23:00,
2013-01-03 20:27:00,41.5,33.5,30.44,NNW,341,0.0,2.0,73,0.00,,---,0.00,0.00,VWS V14.00,2013-01-04 02:27:00,
2013-01-03 20:30:00,41.4,33.1,30.44,NNW,341,0.0,2.0,72,0.00,,---,0.00,0.00,VWS V14.00,2013-01-04 02:30:00,
2013-01-03 20:32:00,41.5,33.2,30.44,NNW,341,0.0,0.0,72,0.00,,---,0.00,0.00,VWS V14.00,2013-01-04 02:32:00,
2013-01-03 20:36:00,41.4,33.8,30.44,NNW,341,0.0,0.0,74,0.00,,---,0.00,0.00,VWS V14.00,2013-01-04 02:36:00,
2013-01-03 20:40:00,40.9,34.3,30.44,NNW,341,0.0,0.0,77,0.00,,---,0.00,0.00,VWS V14.00,2013-01-04 02:40:00,
2013-01-03 20:44:00,40.5,34.2,30.44,NNW,341,0.0,0.0,78,0.00,,---,0.00,0.00,VWS V14.00,2013-01-04 02:44:00,
2013-01-03 20:48:00,40.6,34.0,30.43,NNW,341,0.0,0.0,77,0.00,,---,0.00,0.00,VWS V14.00,2013-01-04 02:48:00,
2013-01-03 20:52:00,40.5,34.2,30.43,NNW,341,0.0,0.0,78,0.00,,---,0.00,0.00,VWS V14.00,2013-01-04 02:52:00,
2013-01-03 20:56:00,40.0,33.7,30.43,NNW,341,0.0,0.0,78,0.00,,---,0.00,0.00,VWS V14.00,2013-01-04 02:56:00,
2013-01-03 21:00:00,40.1,33.2,30.43,NNW,341,0.0,0.0,76,0.00,,---,0.00,0.00,VWS V14.00,2013-01-04 03:00:00,
2013-01-03 21:05:00,39.2,33.2,30.43,NNW,341,0.0,0.0,79,0.00,,---,0.00,0.00,VWS V14.00,2013-01-04 03:05:00,
2013-01-03 21:09:00,39.1,33.5,30.43,NNW,341,0.0,0.0,80,0.00,,---,0.00,0.00,VWS V14.00,2013-01-04 03:09:00,
2013-01-03 21:13:00,39.4,33.4,30.43,NNW,341,0.0,0.0,79,0.00,,---,0.00,0.00,VWS V14.00,2013-01-04 03:13:00,
2013-01-03 21:17:00,39.5,33.2,30.44,NNW,341,0.0,0.0,78,0.00,,---,0.00,0.00,VWS V14.00,2013-01-04 03:17:00,
2013-01-03 21:21:00,39.4,33.8,30.44,NNW,341,0.0,0.0,80,0.00,,---,0.00,0.00,VWS V14.00,2013-01-04 03:21:00,
2013-01-03 21:25:00,39.3,34.3,30.44,NNW,341,0.0,0.0,82,0.00,,---,0.00,0.00,VWS V14.00,2013-01-04 03:25:00,
2013-01-03 21:29:00,39.2,34.8,30.44,NNW,341,0.0,0.0,84,0.00,,---,0.00,0.00,VWS V14.00,2013-01-04 03:29:00,
2013-01-03 21:30:00,39.2,34.8,30.44,NNW,341,0.0,0.0,84,0.00,,---,0.00,0.00,VWS V14.00,2013-01-04 03:30:00,
2013-01-03 21:33:00,39.2,34.8,30.44,NNW,341,0.0,0.0,84,0.00,,---,0.00,0.00,VWS V14.00,2013-01-04 03:33:00,
2013-01-03 21:38:00,39.4,35.3,30.44,NNW,341,0.0,0.0,85,0.00,,---,0.00,0.00,VWS V14.00,2013-01-04 03:38:00,
2013-01-03 21:42:00,39.3,35.2,30.44,NNW,341,0.0,0.0,85,0.00,,---,0.00,0.00,VWS V14.00,2013-01-04 03:42:00,
2013-01-03 21:46:00,39.3,35.2,30.43,NNW,341,0.0,0.0,85,0.00,,---,0.00,0.00,VWS V14.00,2013-01-04 03:46:00,
2013-01-03 21:50:00,39.3,34.9,30.43,NNW,341,0.0,0.0,84,0.00,,---,0.00,0.00,VWS V14.00,2013-01-04 03:50:00,
2013-01-03 21:54:00,39.4,34.4,30.43,NNW,341,0.0,0.0,82,0.00,,---,0.00,0.00,VWS V14.00,2013-01-04 03:54:00,
2013-01-03 21:58:00,39.7,34.7,30.43,NNW,341,0.0,0.0,82,0.00,,---,0.00,0.00,VWS V14.00,2013-01-04 03:58:00,
2013-01-03 22:00:00,39.8,34.8,30.44,NNW,341,0.0,0.0,82,0.00,,---,0.00,0.00,VWS V14.00,2013-01-04 04:00:00,
2013-01-03 22:02:00,40.0,35.0,30.44,NNW,341,0.0,0.0,82,0.00,,---,0.00,0.00,VWS V14.00,2013-01-04 04:02:00,
2013-01-03 22:07:00,40.4,35.0,30.44,NNW,341,0.0,0.0,81,0.00,,---,0.00,0.00,VWS V14.00,2013-01-04 04:07:00,
2013-01-03 22:11:00,40.7,35.3,30.44,NNW,341,0.0,0.0,81,0.00,,---,0.00,0.00,VWS V14.00,2013-01-04 04:11:00,
2013-01-03 22:15:00,41.4,34.7,30.44,NNW,341,0.0,0.0,77,0.00,,---,0.00,0.00,VWS V14.00,2013-01-04 04:15:00,
2013-01-03 22:19:00,41.8,34.8,30.44,NNW,341,0.0,0.0,76,0.00,,---,0.00,0.00,VWS V14.00,2013-01-04 04:19:00,
2013-01-03 22:23:00,41.9,35.2,30.44,NNW,341,0.0,0.0,77,0.00,,---,0.00,0.00,VWS V14.00,2013-01-04 04:23:00,
2013-01-03 22:27:00,42.0,35.3,30.44,NNW,341,0.0,1.0,77,0.00,,---,0.00,0.00,VWS V14.00,2013-01-04 04:27:00,
2013-01-03 22:30:00,42.2,35.5,30.44,NNW,341,0.0,1.0,77,0.00,,---,0.00,0.00,VWS V14.00,2013-01-04 04:30:00,
2013-01-03 22:31:00,42.2,35.8,30.44,NW,318,1.0,1.0,78,0.00,,---,0.00,0.00,VWS V14.00,2013-01-04 04:31:00,
2013-01-03 22:35:00,42.4,35.0,30.44,NNW,336,0.0,3.0,75,0.00,,---,0.00,0.00,VWS V14.00,2013-01-04 04:35:00,
2013-01-03 22:39:00,42.8,35.1,30.44,NW,312,0.0,3.0,74,0.00,,---,0.00,0.00,VWS V14.00,2013-01-04 04:39:00,
2013-01-03 22:48:00,43.2,34.8,30.43,NNW,337,0.0,3.0,72,0.00,,---,0.00,0.00,VWS V14.00,2013-01-04 04:48:00,
2013-01-03 22:52:00,43.4,34.6,30.43,NNW,338,1.0,4.0,71,0.00,,---,0.00,0.00,VWS V14.00,2013-01-04 04:52:00,
2013-01-03 22:56:00,43.4,34.3,30.43,NNW,339,4.0,4.0,70,0.00,,---,0.00,0.00,VWS V14.00,2013-01-04 04:56:00,
2013-01-03 23:00:00,43.5,34.0,30.44,North,355,3.0,5.0,69,0.00,,---,0.00,0.00,VWS V14.00,2013-01-04 05:00:00,
2013-01-03 23:04:00,43.6,33.8,30.44,NNW,328,4.0,5.0,68,0.00,,---,0.00,0.00,VWS V14.00,2013-01-04 05:04:00,
2013-01-03 23:08:00,43.7,33.5,30.44,North,355,4.0,7.0,67,0.00,,---,0.00,0.00,VWS V14.00,2013-01-04 05:08:00,
2013-01-03 23:12:00,43.7,33.8,30.44,NNW,343,2.0,7.0,68,0.00,,---,0.00,0.00,VWS V14.00,2013-01-04 05:12:00,
2013-01-03 23:16:00,43.8,33.6,30.43,North,349,0.0,7.0,67,0.00,,---,0.00,0.00,VWS V14.00,2013-01-04 05:16:00,
2013-01-03 23:21:00,43.9,33.3,30.43,North,5,2.0,7.0,66,0.00,,---,0.00,0.00,VWS V14.00,2013-01-04 05:21:00,
2013-01-03 23:25:00,43.9,33.3,30.43,North,9,1.0,7.0,66,0.00,,---,0.00,0.00,VWS V14.00,2013-01-04 05:25:00,
2013-01-03 23:29:00,43.8,32.8,30.43,North,11,5.0,7.0,65,0.00,,---,0.00,0.00,VWS V14.00,2013-01-04 05:29:00,
2013-01-03 23:30:00,43.8,32.8,30.44,NNW,336,6.0,7.0,65,0.00,,---,0.00,0.00,VWS V14.00,2013-01-04 05:30:00,
2013-01-03 23:33:00,43.7,33.1,30.44,North,9,0.0,6.0,66,0.00,,---,0.00,0.00,VWS V14.00,2013-01-04 05:33:00,
2013-01-03 23:37:00,43.6,33.0,30.44,NNE,13,5.0,6.0,66,0.00,,---,0.00,0.00,VWS V14.00,2013-01-04 05:37:00,
2013-01-03 23:41:00,43.5,32.2,30.44,North,11,3.0,8.0,64,0.00,,---,0.00,0.00,VWS V14.00,2013-01-04 05:41:00,
2013-01-03 23:45:00,43.3,32.3,30.43,NNE,24,0.0,8.0,65,0.00,,---,0.00,0.00,VWS V14.00,2013-01-04 05:45:00,
2013-01-03 23:49:00,43.2,32.6,30.43,NE,51,1.0,8.0,66,0.00,,---,0.00,0.00,VWS V14.00,2013-01-04 05:49:00,
2013-01-03 23:53:00,43.1,32.5,30.43,NNE,15,5.0,8.0,66,0.00,,---,0.00,0.00,VWS V14.00,2013-01-04 05:53:00,
2013-01-03 23:58:00,43.0,32.4,30.43,NNE,14,6.0,8.0,66,0.00,,---,0.00,0.00,VWS V14.00,2013-01-04 05:58:00,